Temp
24 24 24 23 23 23 22 22 22 22 22 22 22 22 21 22 21 21 21 21 21 21 21 21 21 21 21 21 21 20 20 20 20 20 20 20 20 20 20 20 19 19 19 19 19 19 19 19 19 19 19 19 19 19 19 19 19 18 18 18 18 18 17 18 20 21 22 22 23 23 24 25 25 25 25 24 24 23 23 23 23 23 23 23 23
24 24 24 23 23 23 23 22 22 22 22 22 22 22 22 22 22 22 21 21 21 21 21 21 21 21 21 21 21 20 20 20 20 20 20 20 20 20 20 20 19 19 19 19 19 19 19 19 19 19 19 19 19 19 19 19 19 18 18 18 18 18 18 17 18 20 21 21 22 23 23 24 24 25 24 24 23 23 23 23 23 23 23 23 23
25 24 24 23 23 23 23 22 22 22 22 22 22 22 23 23 23 23 22 22 22 21 21 21 21 21 20 20 20 20 20 20 20 20 20 20 20 20 19 19 19 19 19 19 19 19 19 19 19 19 19 19 18 18 18 18 18 18 18 18 18 18 18 18 17 18 20 21 22 22 23 23 24 24 24 24 23 23 23 23 23 23 23 23 23
26 24 23 23 23 23 23 22 22 22 22 23 23 23 24 24 24 23 23 22 22 22 21 21 21 21 20 20 20 20 20 20 20 20 20 20 20 19 19 19 19 19 19 19 19 19 19 19 19 19 18 18 18 18 17 17 17 18 18 18 18 18 18 18 18 18 19 21 21 22 23 23 23 23 24 24 23 23 23 22 23 23 23 23 23
27 25 24 24 24 23 23 23 23 23 23 23 23 23 24 23 23 23 23 23 23 23 22 22 21 21 21 20 20 20 20 20 20 20 20 20 20 19 19 19 19 19 19 19 19 19 19 19 19 18 18 17 17 17 16 16 16 16 17 17 18 18 18 18 18 18 18 19 20 21 22 23 23 23 23 23 23 23 23 22 22 23 23 23 23
27 26 25 25 24 24 23 23 23 23 23 23 23 23 23 23 23 23 23 23 23 23 23 23 22 21 21 20 20 20 20 20 20 20 20 20 20 20 19 19 19 19 19 19 19 19 19 19 18 18 17 17 16 16 15 14 14 15 16 16 17 17 17 18 18 18 18 19 20 21 21 22 22 22 23 23 23 23 22 21 21 22 23 22 22
26 25 25 25 25 24 24 23 23 23 23 23 22 22 22 22 22 22 22 22 22 23 23 23 22 21 21 21 20 20 20 20 20 20 20 20 20 19 19 19 19 19 19 19 19 19 19 19 18 18 17 16 15 15 14 13 14 14 15 15 16 16 17 17 17 18 18 19 20 20 20 21 21 21 22 22 22 22 22 21 21 21 22 22 22
25 25 25 25 24 24 23 23 23 23 22 22 22 22 22 21 21 21 21 22 22 22 22 22 22 21 21 21 21 20 20 20 20 20 20 20 19 19 19 19 19 19 19 19 19 19 19 19 18 18 17 16 15 14 13 13 13 13 14 14 15 16 16 16 17 18 18 19 20 20 20 20 20 21 21 20 20 21 22 21 21 22 22 22 22
25 24 24 24 23 23 23 23 23 22 22 22 22 21 21 21 21 21 22 22 22 22 22 22 21 21 21 21 21 21 20 20 20 20 20 20 19 19 19 19 19 19 19 19 19 19 19 19 18 18 16 15 15 14 14 13 13 13 13 13 13 14 15 16 17 18 19 20 20 20 20 20 20 21 21 20 20 21 22 22 23 23 22 22 22
24 24 24 24 23 23 23 22 22 22 22 22 22 21 21 21 21 21 21 22 21 21 21 21 21 21 21 21 21 21 21 20 20 20 19 19 19 19 19 19 19 19 19 19 19 19 19 18 18 17 16 15 15 14 14 14 13 13 13 13 12 13 13 15 16 17 18 19 20 20 20 20 20 21 21 21 20 21 22 22 23 23 23 22 22
24 24 24 24 23 23 23 22 22 22 22 22 22 21 21 21 21 21 21 21 21 21 21 21 21 21 21 21 21 21 20 20 20 20 19 19 19 18 18 18 19 19 19 19 19 19 19 18 17 17 16 16 15 14 14 14 13 13 13 13 13 13 13 14 15 16 17 18 19 20 20 19 20 21 22 22 21 21 22 21 22 23 23 23 22
24 23 24 23 23 23 23 22 22 22 22 22 22 21 21 21 21 21 21 21 21 21 21 21 21 21 21 21 21 21 21 20 20 20 20 19 18 18 18 18 18 19 19 19 19 18 18 18 17 16 16 16 15 14 15 14 14 13 13 13 14 14 15 15 15 16 16 17 18 19 20 20 20 21 22 22 21 21 22 22 22 23 23 23 23
24 24 23 23 23 23 22 22 22 22 22 22 22 21 21 21 21 21 22 22 21 21 21 21 21 21 21 21 21 21 21 21 20 20 20 19 19 18 17 17 18 18 18 18 18 18 18 17 17 16 16 16 15 14 15 14 14 13 13 14 14 15 15 16 16 16 16 16 17 18 19 20 21 21 22 22 22 22 22 22 22 23 23 23 23
24 24 24 23 23 23 23 23 22 22 22 22 22 22 21 21 22 22 22 22 22 21 21 21 21 21 21 21 21 21 21 21 21 20 20 19 19 18 17 17 18 18 18 17 17 18 17 17 16 16 16 16 15 15 15 14 14 13 13 14 15 15 15 16 16 17 17 16 16 17 18 19 20 21 22 22 23 23 22 22 22 22 23 23 23
24 24 24 23 23 23 23 23 22 22 22 22 22 22 21 21 22 22 22 22 22 22 21 21 22 22 22 22 22 22 22 21 21 20 20 20 19 18 18 17 17 17 18 17 16 17 17 17 16 16 16 16 16 16 15 14 14 13 13 14 15 15 15 15 16 16 17 17 17 17 17 18 19 20 21 22 22 22 22 21 21 22 22 22 23
24 24 24 24 23 23 23 23 23 22 22 22 22 22 22 22 22 22 22 22 22 21 21 22 22 22 22 22 21 21 21 21 21 20 20 20 19 18 18 17 17 17 17 17 17 17 17 17 16 17 16 16 17 16 15 14 14 13 13 14 15 14 14 15 15 15 15 16 17 17 18 18 19 19 20 21 21 21 21 21 21 21 20 21 22
24 24 24 24 24 23 23 23 23 23 22 22 22 22 22 22 22 22 22 22 22 22 22 22 22 22 22 22 21 20 20 21 21 20 20 20 19 18 17 18 17 16 16 18 18 18 17 17 17 17 16 17 17 16 15 14 14 13 13 14 14 14 15 15 15 14 14 14 16 17 18 18 19 19 20 20 20 20 20 20 20 20 19 19 22
25 24 24 24 24 24 23 23 23 23 23 22 22 22 22 22 22 22 22 22 22 22 22 22 22 22 22 22 21 20 20 20 20 20 20 19 19 18 17 17 17 17 17 18 18 18 18 17 17 17 17 17 16 16 15 14 14 14 14 13 14 14 15 14 14 14 14 14 15 17 18 18 18 19 19 20 20 20 20 20 20 20 20 20 22
25 25 24 24 24 24 24 23 23 23 23 23 23 23 23 22 22 22 22 22 22 22 22 22 22 22 21 20 20 20 20 19 19 19 20 19 19 18 17 17 17 17 18 18 18 18 18 17 17 17 17 16 16 16 15 15 14 14 14 13 14 14 14 14 13 13 14 14 15 16 18 18 18 18 19 19 20 20 20 20 20 20 20 20 22
25 25 24 24 24 24 23 23 23 23 23 23 23 23 22 22 23 22 22 22 22 22 22 22 22 22 21 20 20 20 20 19 18 19 19 19 18 18 17 17 18 18 18 18 18 18 18 18 17 17 17 16 16 16 16 15 15 15 14 14 14 14 14 13 13 14 14 15 16 16 17 18 18 18 18 19 19 19 20 20 20 20 20 20 22
26 25 24 24 24 24 23 23 22 23 23 23 23 22 22 22 22 22 22 22 22 22 22 21 21 21 21 20 20 19 19 18 18 19 19 18 18 18 17 17 17 17 17 17 18 18 18 18 18 17 16 16 16 16 16 15 15 15 15 14 14 14 14 13 14 14 14 15 16 17 18 18 18 19 19 19 19 19 20 20 20 21 21 21 22
26 25 24 24 24 24 23 22 22 22 22 22 22 22 22 22 22 22 22 22 22 21 21 21 21 21 21 20 19 19 19 18 18 18 18 18 18 17 17 16 16 16 16 16 17 18 18 17 17 17 16 16 16 16 16 16 15 15 15 14 14 14 14 14 14 14 14 14 15 16 18 18 19 19 19 20 20 20 20 20 21 21 21 21 22
25 25 24 24 24 24 23 23 22 22 22 22 22 22 22 21 21 21 21 21 21 21 21 21 20 20 20 20 19 19 19 18 18 18 17 17 17 17 17 16 16 16 16 16 16 17 17 17 17 17 17 16 16 16 16 16 15 15 15 15 15 14 14 14 14 14 14 14 14 15 16 17 18 19 19 20 20 20 21 21 21 21 21 21 21
25 24 24 23 23 23 23 23 22 22 22 21 21 21 21 21 20 20 20 20 21 20 21 21 20 20 20 20 20 20 19 18 18 18 17 17 17 17 16 16 16 16 16 16 16 17 17 17 17 17 17 17 16 16 16 15 15 15 15 15 15 15 14 14 14 14 14 14 14 14 15 15 16 18 19 20 21 21 21 21 21 22 22 22 22
25 24 23 23 23 23 23 22 22 22 21 21 21 21 21 20 20 20 19 19 20 21 21 21 20 20 20 20 20 20 19 18 17 17 17 16 17 16 16 16 17 16 16 17 17 17 17 17 17 18 17 17 17 16 15 15 15 15 15 15 15 15 15 14 14 14 14 14 14 14 14 14 14 16 18 20 20 20 20 20 21 22 22 22 22
24 23 22 22 22 22 23 22 22 21 21 21 20 20 21 20 20 20 18 18 19 20 20 20 20 19 19 20 21 21 20 19 17 17 16 16 16 16 15 16 16 16 17 17 18 17 17 17 18 18 18 17 17 16 14 14 15 15 15 15 15 15 15 14 14 14 14 14 14 14 14 14 15 15 17 19 20 19 19 20 20 21 21 21 21
23 23 22 22 22 22 22 21 21 21 20 20 20 21 21 21 21 19 18 18 20 20 19 20 21 20 20 21 21 20 21 20 17 16 16 15 15 15 15 15 16 16 17 18 17 17 17 18 18 19 18 18 17 15 14 14 15 15 14 15 15 15 14 14 14 14 14 14 14 14 14 14 15 15 16 17 19 19 19 19 20 20 20 20 20
23 23 22 22 22 21 21 21 21 21 20 20 21 21 21 20 20 19 18 18 20 21 21 21 21 20 20 21 20 20 20 19 16 15 14 15 15 15 14 14 15 15 16 16 16 17 17 18 18 19 19 18 17 16 15 15 15 14 14 14 14 14 14 14 14 14 14 14 14 14 14 14 14 14 14 15 17 18 19 18 19 19 19 19 20
23 22 22 22 21 21 21 21 21 20 20 20 20 20 20 19 19 18 18 19 20 20 20 21 20 20 20 20 19 18 18 17 15 14 14 14 13 14 14 13 14 15 16 16 16 16 17 18 19 19 19 19 18 17 17 16 15 14 13 13 13 13 13 13 13 14 14 14 14 14 14 14 14 14 14 14 15 16 17 18 19 19 19 19 19
22 22 23 23 22 22 22 22 21 20 20 19 18 18 18 18 18 18 18 19 19 19 19 19 18 18 18 17 16 16 16 14 13 13 14 14 13 13 13 13 14 15 16 16 16 16 17 18 19 18 18 18 18 17 16 16 15 14 13 13 12 12 12 12 12 13 13 13 14 14 14 14 14 14 14 14 14 14 15 16 17 17 18 18 18
22 23 24 23 23 22 22 21 20 21 21 20 18 18 17 16 16 17 17 17 17 17 17 17 17 17 16 15 14 14 14 13 13 13 13 14 14 13 13 13 14 15 15 16 16 17 18 18 18 17 17 17 17 16 16 16 15 14 14 13 12 12 11 11 11 12 12 13 13 13 13 14 14 14 14 14 14 14 14 14 14 14 15 15 16
22 23 23 23 22 21 21 21 21 22 22 21 19 18 17 16 15 14 14 15 15 15 15 15 15 15 15 14 13 13 12 13 13 13 13 13 13 13 13 14 14 15 15 16 17 17 18 18 17 16 16 16 16 15 15 15 14 14 14 13 13 12 11 11 11 12 12 12 12 12 13 13 14 14 14 14 14 14 14 14 14 14 13 13 13
22 22 23 22 22 21 22 22 21 21 22 21 19 17 17 17 15 13 12 12 13 13 14 14 13 13 13 13 13 12 12 12 12 12 12 13 13 13 13 14 14 14 15 16 17 17 17 17 16 15 15 15 14 14 14 14 14 13 13 13 13 12 12 11 11 11 12 12 12 12 12 13 13 14 14 14 14 14 14 14 14 14 14 13 13
21 21 21 21 21 21 21 21 21 20 20 20 19 17 17 17 16 14 13 12 12 12 11 12 12 12 12 12 12 11 11 11 12 12 12 13 13 14 14 14 14 14 15 16 16 16 15 15 15 14 14 13 13 13 13 13 13 13 13 12 12 12 11 11 11 12 12 11 12 12 12 12 13 13 14 14 14 14 14 14 14 14 14 14 14
20 21 20 20 20 20 21 21 20 20 19 19 19 17 16 16 15 15 14 14 14 13 11 11 11 12 11 11 11 11 11 11 11 12 12 13 14 14 15 15 15 15 15 15 15 14 14 14 14 13 13 12 12 12 12 12 12 12 12 12 12 11 11 10 10 11 12 12 11 12 12 12 12 13 13 14 14 14 14 14 14 14 14 14 14
20 20 21 20 20 20 20 20 20 19 19 19 19 18 16 15 15 15 15 14 14 14 12 11 11 11 11 11 11 11 11 11 12 12 12 13 14 15 16 16 16 15 15 15 14 14 13 13 13 12 12 11 11 11 10 10 10 10 11 11 11 11 10 10 10 10 11 11 11 12 12 12 12 12 13 13 13 13 14 14 14 14 14 14 14
20 20 20 19 18 18 18 18 19 18 18 18 19 17 16 15 15 15 14 14 14 14 13 12 12 11 11 12 12 12 12 12 12 12 12 13 14 14 15 14 14 14 13 13 13 13 12 12 12 11 11 11 10 10 9 9 9 9 9 10 10 9 9 9 9 9 10 10 11 11 12 12 12 12 12 12 12 13 13 14 14 14 14 14 14
18 19 18 17 17 17 17 16 17 17 17 18 18 17 16 15 15 14 14 13 13 13 13 13 13 12 12 12 12 12 13 13 13 13 13 13 13 13 13 12 12 12 12 12 12 12 12 11 11 11 11 11 10 10 9 9 9 9 9 9 9 9 8 8 8 9 9 10 10 10 11 11 12 12 12 12 12 12 12 13 13 14 14 14 14
18 17 17 16 16 16 16 16 16 16 17 17 16 15 15 15 14 14 14 13 13 13 12 12 12 11 11 11 11 11 13 14 14 13 13 12 12 12 12 11 11 11 10 10 11 11 11 11 11 11 11 10 10 10 9 9 9 9 9 9 9 9 8 8 7 8 8 9 9 9 9 10 11 11 11 12 12 12 12 12 12 13 14 14 14
17 16 16 16 16 16 16 16 16 16 16 15 15 14 14 14 13 14 14 13 12 12 12 12 11 10 9 9 9 10 12 14 14 13 12 12 11 11 11 11 11 11 10 10 10 10 11 11 10 10 10 10 10 10 10 9 9 9 9 9 9 8 8 7 7 7 7 8 8 8 9 9 10 11 11 12 12 11 11 12 12 12 13 13 14
16 15 15 15 15 16 15 15 14 14 14 13 13 13 13 13 13 13 13 12 12 12 12 12 11 9 8 8 9 10 11 13 13 12 12 12 11 10 10 10 10 11 10 10 10 10 10 10 10 9 9 9 9 9 9 9 9 9 9 8 8 8 8 7 7 6 6 7 7 8 8 9 9 10 11 12 12 12 11 11 12 12 12 13 13
15 14 14 14 15 15 15 14 14 13 13 13 13 13 13 13 13 13 13 14 14 14 13 12 11 9 8 8 9 10 11 11 11 11 11 11 11 10 9 9 9 9 9 9 9 9 9 9 9 9 8 8 8 9 9 8 8 9 8 8 8 7 7 7 6 6 6 6 6 7 8 8 9 9 10 11 12 12 11 11 11 11 12 12 12
15 14 14 14 14 14 14 14 14 13 13 13 13 13 13 13 13 14 14 14 14 15 15 13 11 10 8 8 9 10 10 10 11 11 10 10 10 9 8 8 8 8 8 8 8 8 9 9 9 8 8 8 7 8 8 8 8 8 7 7 7 6 6 6 6 6 5 5 6 6 7 8 9 9 9 10 10 11 12 11 11 11 11 11 12
14 14 13 14 14 13 13 13 13 13 12 12 12 12 12 13 13 13 13 13 13 14 14 14 12 11 10 9 9 10 9 9 10 10 9 9 9 8 8 8 8 8 8 8 7 7 8 8 8 8 8 7 7 7 7 7 7 7 6 6 6 6 5 5 5 5 5 5 6 6 7 8 8 9 9 9 10 10 11 11 11 11 11 11 11
14 13 13 14 14 14 14 14 14 13 12 12 12 12 12 12 12 12 13 13 14 14 14 13 13 12 11 10 10 10 9 9 9 9 9 9 8 8 8 8 8 8 8 8 7 7 7 8 8 8 7 7 7 7 7 6 6 6 5 5 4 4 4 4 4 5 5 5 6 7 7 8 8 8 9 9 9 10 10 10 10 11 11 11 11
14 14 14 15 15 15 15 15 14 14 13 13 12 12 13 13 13 13 13 14 14 13 13 13 13 12 12 11 10 9 9 9 9 9 9 8 9 9 9 9 9 9 8 8 8 7 7 7 7 7 7 7 7 7 6 6 6 5 4 4 3 4 4 4 4 4 5 5 6 7 8 8 8 8 8 9 9 9 10 10 10 10 10 10 11
14 14 15 15 14 14 14 14 14 13 13 13 12 13 13 14 14 13 13 13 13 13 13 13 12 12 12 11 11 10 10 10 10 10 9 8 8 9 10 10 10 9 8 8 8 8 7 7 7 7 7 6 6 6 6 6 5 4 3 3 3 4 5 5 4 4 4 5 6 7 8 8 9 9 9 9 9 9 9 9 10 10 10 10 10
15 14 14 14 14 14 13 13 13 13 13 13 13 13 14 14 13 13 13 12 12 13 13 13 13 12 12 12 12 11 11 11 11 11 10 9 9 9 9 9 9 8 8 8 7 7 7 7 7 7 7 6 6 6 5 5 4 3 3 3 3 3 4 5 4 4 4 5 5 7 8 8 8 9 9 8 9 9 9 9 9 10 10 10 10
16 15 15 15 15 15 15 14 14 14 14 14 14 14 14 14 14 13 13 13 13 13 13 13 13 12 12 12 12 11 11 11 11 11 11 10 9 9 8 8 8 8 8 8 7 7 7 7 6 6 6 6 6 6 5 4 4 3 2 3 3 3 3 4 4 4 5 5 5 6 8 8 8 8 8 8 9 9 9 9 9 10 10 10 10
16 16 16 16 16 16 16 16 16 16 16 16 15 15 15 14 14 13 13 13 13 13 13 13 12 12 12 11 11 11 11 11 11 10 10 10 9 9 8 7 7 8 8 7 7 7 7 7 6 6 6 6 6 6 5 4 3 2 2 3 3 3 3 4 4 4 5 5 5 6 7 7 8 8 8 8 8 9 9 9 9 10 10 10 10
15 16 16 16 16 16 15 15 15 15 15 15 15 15 14 14 14 13 13 13 13 13 13 12 12 12 12 11 11 11 10 10 10 10 10 9 9 8 8 7 7 7 7 7 7 7 7 7 7 6 6 6 6 5 4 3 2 2 2 2 2 3 3 3 4 4 4 5 5 6 7 7 7 8 7 7 7 8 8 9 9 10 10 10 10
Height
811 812 813 814 815 815 816 816 816 817 817 817 817 816 817 816 815 815 814 813 812 811 811 809 809 808 806 805 804 803 803 801 801 800 799 798 797 796 795 794 793 792 791 790 789 788 787 785 783 781 780 779 777 776 773 771 770 768 766 765 764 765 766 764 759 753 751 752 752 752 752 753 752 751 752 752 752 753 755 756 757 758 758 758 759
809 811 811 812 813 813 814 814 815 815 815 816 815 815 815 814 813 813 812 812 811 810 810 808 808 806 805 804 803 802 801 800 800 799 798 797 796 795 794 793 792 791 790 789 787 787 785 783 782 780 779 777 775 774 771 769 767 765 762 760 759 758 758 759 759 753 748 748 749 748 749 749 748 748 748 748 749 750 752 752 753 754 754 755 756
806 809 809 811 811 812 813 813 813 814 814 814 814 813 813 811 811 811 810 810 810 809 808 807 806 805 804 803 801 801 800 798 798 798 797 796 795 794 793 792 791 790 788 788 786 785 784 782 781 779 777 775 773 771 769 766 764 761 758 757 755 754 752 754 756 754 748 745 745 745 745 745 744 744 744 745 745 746 747 748 749 749 750 751 752
803 806 808 809 810 810 811 812 812 812 812 812 812 811 811 809 809 809 809 809 808 807 806 805 804 804 802 801 800 799 798 797 797 796 795 795 793 792 791 790 789 788 787 786 785 784 782 781 779 778 776 774 771 769 766 764 761 758 755 753 751 749 747 747 749 749 745 741 741 741 741 741 740 740 741 741 741 742 743 744 744 745 746 746 748
801 803 805 807 808 809 810 810 810 811 810 811 810 809 809 808 808 808 807 806 805 805 804 803 803 802 801 800 799 798 797 796 795 794 794 793 792 790 790 789 788 786 785 785 784 782 781 779 778 777 775 773 770 767 765 762 758 755 751 748 747 746 743 741 742 743 741 738 737 737 738 738 737 737 737 737 737 737 738 739 740 740 741 743 744
799 801 803 804 805 807 808 808 809 809 809 809 809 809 808 808 807 806 805 804 804 803 802 801 801 801 800 798 797 796 795 794 793 792 792 791 790 789 788 787 786 784 784 783 782 780 779 778 777 775 774 772 770 767 764 760 757 753 749 745 743 742 740 737 737 738 736 734 733 734 734 734 734 734 734 733 733 733 734 737 738 737 737 739 741
798 800 801 802 804 805 806 807 807 807 808 808 808 808 808 807 806 805 804 804 803 802 801 800 799 799 798 797 796 795 793 792 791 791 791 790 789 788 787 786 784 783 782 781 780 778 777 776 775 773 772 770 768 766 763 759 756 752 749 743 739 738 737 735 734 734 731 728 728 729 729 730 731 731 730 730 730 729 731 733 734 733 733 735 737
797 799 800 801 803 804 805 805 806 806 807 807 807 807 806 806 805 805 804 803 802 801 799 798 798 797 796 795 794 793 792 790 790 789 789 788 787 786 785 784 782 781 780 778 777 776 775 774 772 771 770 768 766 764 761 758 755 751 748 743 738 735 733 732 731 729 726 724 723 724 725 726 727 727 727 728 727 725 726 728 729 729 730 730 733
796 798 799 800 802 802 803 804 804 805 805 805 806 806 805 805 804 803 802 801 800 799 798 797 797 796 794 793 792 791 789 788 788 788 788 787 786 785 783 782 780 779 777 776 774 774 772 771 770 769 767 765 763 761 759 757 754 751 747 742 737 733 730 728 727 725 722 719 719 720 721 722 723 724 723 725 725 722 722 724 724 725 726 727 728
794 796 797 798 800 801 802 803 803 803 804 804 804 804 804 803 802 801 801 800 799 798 797 796 795 794 792 791 790 789 787 787 786 786 786 785 784 783 781 780 779 777 775 773 772 771 770 769 768 766 764 762 760 758 755 753 751 749 745 741 737 732 728 725 723 721 719 716 715 717 717 717 719 719 718 719 721 720 719 721 721 721 723 724 725
792 794 795 796 798 799 800 801 801 802 802 802 802 802 802 801 800 800 799 798 797 796 796 795 793 792 791 789 788 787 786 785 784 784 784 783 782 781 779 778 776 775 773 771 770 769 767 766 765 763 761 759 757 754 751 749 747 744 741 737 733 730 727 723 720 718 717 715 713 713 714 713 714 714 713 714 717 717 716 718 719 718 718 720 721
790 792 793 795 796 797 798 799 799 800 800 800 800 800 800 799 799 798 797 796 795 794 794 793 792 790 789 788 787 785 784 783 782 782 781 780 779 778 777 776 774 773 771 769 768 766 765 764 762 760 759 756 754 751 748 746 744 740 736 732 729 726 724 721 718 716 715 714 711 710 709 709 709 709 709 710 713 713 712 714 715 714 714 716 717
788 790 791 793 793 794 796 796 797 797 797 798 798 798 798 797 797 796 795 794 793 792 792 791 789 788 787 786 785 783 782 781 780 779 779 778 777 776 775 774 773 771 770 768 766 764 762 761 759 757 756 753 751 749 746 744 741 737 733 730 726 723 720 718 715 713 712 711 709 707 706 705 705 704 705 706 708 708 708 709 710 710 711 712 713
786 787 789 790 791 792 793 793 794 795 795 796 796 796 796 795 795 794 793 792 791 790 790 788 787 786 785 783 782 781 779 778 777 777 777 776 775 774 773 772 771 770 768 766 764 762 760 759 757 755 753 750 748 746 744 742 738 735 732 729 725 720 717 714 711 709 707 705 704 702 701 702 701 700 701 702 703 703 704 706 707 706 707 708 710
783 785 786 788 788 789 790 791 792 792 793 793 793 793 794 793 793 792 791 790 789 788 788 786 785 784 782 781 780 778 777 776 776 775 775 774 773 772 771 770 769 767 765 764 763 760 758 757 755 753 750 748 746 744 742 740 737 734 730 726 722 718 714 712 709 706 704 701 699 696 695 696 697 698 698 699 699 700 702 704 705 704 705 707 707
781 782 783 784 785 786 787 788 789 790 791 791 791 791 791 790 790 790 789 789 788 787 786 784 782 781 780 779 778 778 776 775 774 774 773 772 771 770 769 769 767 766 763 761 760 758 756 755 753 751 748 746 744 743 741 738 735 732 728 724 719 715 712 709 706 703 700 697 694 692 690 691 692 693 695 695 695 697 700 702 702 702 704 707 705
778 779 780 781 782 783 784 785 786 787 788 788 788 788 788 788 788 788 787 786 785 785 783 782 781 779 778 778 777 777 776 774 773 773 772 771 770 769 769 767 766 765 762 759 758 756 754 753 751 749 747 744 743 741 739 736 733 730 727 722 718 714 709 705 701 698 695 690 687 685 685 686 688 689 691 692 693 695 697 698 698 699 702 705 703
775 776 777 778 779 781 781 782 784 784 785 785 785 785 785 785 785 785 785 784 783 782 781 779 778 777 777 776 776 775 775 774 774 772 770 770 769 768 768 766 764 763 761 758 757 755 753 751 749 748 745 743 741 739 737 735 731 728 725 721 717 712 707 702 697 692 688 684 680 678 678 680 683 685 687 689 690 693 693 693 695 697 699 701 700
771 773 775 776 777 778 779 780 781 781 782 782 782 782 782 782 782 782 782 781 780 779 778 777 776 776 776 776 775 774 773 773 773 772 769 768 767 766 766 765 763 762 760 757 755 753 751 750 748 746 744 742 740 738 736 734 731 728 725 721 716 711 706 701 695 688 683 678 675 674 673 674 677 680 682 684 686 688 689 690 692 695 695 696 697
768 770 772 773 774 776 776 778 778 779 779 779 779 780 780 780 780 779 779 778 777 777 776 775 775 774 774 774 773 772 771 771 771 770 768 767 766 764 764 764 762 761 759 756 754 751 750 748 746 744 743 741 739 737 734 733 730 727 724 721 716 711 706 700 694 688 682 676 672 670 669 670 672 675 677 680 681 683 685 687 689 691 692 692 693
765 767 769 769 771 772 773 775 776 776 777 777 777 777 777 777 777 776 776 775 775 775 775 774 773 772 772 772 771 770 770 769 768 767 766 765 764 763 763 762 761 760 757 755 753 751 749 747 745 743 741 739 737 735 733 731 729 727 724 721 717 712 706 700 694 688 682 676 670 666 665 666 668 670 672 673 675 677 680 682 684 686 687 688 689
762 764 765 766 767 768 770 771 772 773 773 774 774 774 774 774 774 774 774 774 773 773 773 772 772 771 770 770 769 768 767 767 765 764 764 764 763 762 762 760 760 758 756 754 752 750 748 746 744 742 740 738 735 733 731 730 728 726 724 720 716 712 706 701 695 689 684 678 671 665 663 663 664 664 666 667 669 671 674 677 679 681 682 683 685
759 761 762 763 764 765 766 768 769 770 770 770 771 771 771 771 771 771 772 772 772 771 771 770 770 769 768 768 767 766 765 765 764 763 762 762 762 761 760 759 758 757 755 753 750 748 747 745 743 741 738 736 734 732 730 728 727 725 723 719 716 711 706 701 696 691 685 679 672 667 664 662 661 660 661 662 663 665 668 670 673 675 677 679 681
757 757 759 760 761 763 764 765 766 766 767 768 768 768 768 768 768 769 770 770 770 769 768 767 767 767 766 766 764 764 764 764 763 761 761 762 761 760 758 757 756 755 754 752 749 747 746 744 742 739 737 735 733 731 729 728 727 725 722 719 715 711 707 702 697 692 686 680 673 670 666 663 660 658 657 657 659 660 663 665 667 670 672 674 677
755 756 757 759 760 761 762 762 763 764 764 765 765 765 765 765 765 766 767 768 767 765 765 765 764 765 765 763 761 761 762 762 761 761 761 761 760 759 757 755 754 754 752 750 748 746 744 742 740 737 736 734 732 730 730 729 727 724 722 719 715 712 708 703 699 693 688 682 677 672 668 663 659 655 652 652 654 656 658 661 663 666 668 671 674
753 755 756 756 758 759 760 760 761 762 762 763 763 762 762 762 762 763 765 767 765 763 763 763 763 763 763 760 759 759 759 759 760 761 761 760 759 757 756 754 753 752 751 749 747 745 742 740 738 736 734 733 731 731 731 729 726 723 721 718 715 712 708 704 700 695 690 685 680 674 670 665 658 651 646 646 648 651 654 657 659 661 664 667 670
752 753 754 754 756 757 758 758 759 759 760 761 760 759 758 758 759 761 764 765 762 760 761 760 760 760 760 759 758 758 758 758 759 760 760 759 758 756 754 753 752 751 749 748 746 744 741 739 736 734 733 732 731 731 731 730 726 723 721 718 715 712 709 706 702 697 693 689 683 679 674 667 659 653 647 644 645 648 651 654 656 658 661 664 668
751 751 752 753 754 754 755 756 756 757 757 758 757 755 755 756 756 758 761 762 759 757 758 758 758 759 759 758 758 759 759 759 759 759 759 758 756 755 754 753 751 749 748 747 745 742 740 737 735 733 732 731 731 731 730 729 726 724 721 719 716 713 710 707 703 699 696 691 686 682 676 668 661 658 652 646 645 647 649 652 654 656 658 661 665
750 750 751 751 752 752 752 753 754 754 754 754 753 753 753 754 754 755 757 757 755 755 756 757 758 758 758 758 759 760 760 760 760 759 759 757 756 754 753 752 751 748 747 746 744 742 739 737 735 734 732 731 731 730 729 728 726 724 722 720 717 714 711 709 705 702 698 693 688 684 678 672 669 665 659 653 651 649 648 650 653 654 656 659 663
749 749 749 748 748 747 748 749 750 750 751 751 751 751 752 752 752 753 753 753 753 754 755 756 757 757 758 759 759 759 760 760 759 759 758 756 755 754 753 752 750 748 746 744 743 741 739 737 735 735 733 732 732 731 730 729 727 725 724 721 719 717 714 711 708 705 701 697 692 688 684 681 678 673 667 663 659 654 651 651 653 655 657 660 663
748 747 746 745 745 745 746 747 748 747 747 747 748 749 750 751 751 751 751 752 752 753 754 755 756 757 758 759 759 759 759 759 758 758 757 755 754 753 752 751 750 748 746 744 742 740 738 737 737 736 735 734 733 733 732 730 729 728 726 724 722 719 717 714 711 708 705 701 697 694 691 688 685 681 677 672 667 663 660 659 659 661 663 664 666
747 746 745 744 744 744 745 746 745 744 744 743 745 748 750 750 750 751 751 751 752 753 754 755 756 756 757 758 759 759 758 758 758 757 756 754 753 752 751 751 749 747 746 744 742 740 739 739 739 738 737 736 735 735 734 733 732 730 728 726 724 722 720 717 714 712 709 706 703 699 696 693 691 688 684 680 676 674 672 670 670 671 672 672 673
747 745 744 744 743 743 743 743 743 743 742 742 744 746 748 749 749 750 751 752 752 753 753 754 755 756 757 758 759 759 758 758 757 756 755 754 752 751 751 751 749 748 746 744 742 741 741 741 740 740 739 738 738 737 736 735 734 732 731 729 727 725 723 720 717 714 711 709 706 703 701 698 695 693 690 687 684 684 682 680 680 680 680 681 683
746 745 745 744 744 743 743 742 742 742 742 742 743 744 746 748 749 751 752 753 753 753 754 754 755 756 757 758 759 758 758 757 757 756 755 754 752 751 751 750 749 749 748 746 745 744 744 743 743 743 742 741 740 739 738 737 736 734 733 731 729 727 725 722 719 716 714 712 709 707 705 702 700 697 695 693 691 691 689 687 688 688 688 690 692
745 745 744 744 744 744 743 742 742 742 741 741 741 742 744 746 749 751 752 753 753 754 754 755 755 756 757 758 758 758 758 758 758 757 755 754 753 751 750 749 749 749 749 748 748 747 746 746 745 745 744 743 742 741 740 739 738 736 735 733 731 729 727 724 722 720 717 715 713 710 708 706 704 702 701 699 697 697 695 694 694 694 694 696 695
744 744 743 743 743 743 742 742 742 741 741 740 740 741 743 745 747 749 750 751 752 752 753 754 755 756 757 757 758 758 758 758 758 757 756 755 754 752 750 749 749 750 751 751 750 750 749 748 748 747 746 745 744 743 742 741 740 738 737 735 734 732 729 727 725 723 721 718 716 714 712 710 708 707 705 704 703 702 701 699 699 698 697 697 696
743 742 742 742 742 742 742 743 742 742 741 741 741 741 743 744 745 747 748 750 751 752 753 755 756 756 757 758 758 758 758 758 758 757 757 756 755 754 753 752 752 753 754 754 753 752 751 751 750 749 748 747 746 745 744 743 742 740 739 737 736 734 732 730 728 726 724 721 719 717 716 714 713 712 710 709 708 706 705 704 702 701 700 699 699
743 742 742 743 743 743 743 743 743 742 741 741 741 742 743 744 746 747 748 750 751 752 754 755 756 757 757 758 758 758 758 757 757 757 758 758 757 756 756 756 756 756 756 756 755 754 753 753 752 751 750 749 748 747 746 745 744 742 741 739 738 736 734 732 730 728 726 725 723 721 719 718 717 716 715 713 712 710 709 707 706 704 703 703 703
743 743 743 743 743 743 743 743 743 742 740 740 741 743 744 745 747 748 749 751 753 754 754 756 757 757 757 758 759 759 757 756 757 758 759 760 760 759 758 758 758 758 758 758 757 756 755 754 753 752 752 751 750 749 748 747 746 744 743 742 740 739 737 735 733 731 729 728 726 725 723 721 720 719 717 716 715 713 711 710 709 707 707 707 706
742 743 743 742 742 743 743 743 742 741 741 741 743 744 746 747 748 749 751 752 753 754 755 757 758 758 758 759 759 758 757 756 758 759 760 761 761 760 760 759 759 759 759 759 758 757 756 756 755 754 753 752 751 751 750 749 747 746 745 744 742 741 740 738 736 734 733 731 730 728 726 725 723 721 719 718 717 716 714 713 712 711 710 710 709
742 743 743 742 742 743 743 743 743 743 743 744 745 746 747 749 750 751 752 753 753 754 755 757 759 759 759 760 760 759 758 758 759 761 761 761 761 761 761 761 760 759 759 759 759 758 758 757 757 756 755 754 753 752 751 750 749 748 747 745 744 743 742 741 739 737 736 735 733 731 730 728 726 724 722 720 719 719 717 716 715 714 713 712 712
742 743 744 743 743 744 744 745 744 745 745 746 747 748 749 750 751 752 752 752 752 752 753 756 758 760 761 761 761 760 760 760 761 761 761 761 761 762 762 762 761 761 761 761 760 759 759 758 758 757 756 755 754 753 752 751 750 749 748 747 746 745 744 742 741 740 738 737 736 734 733 731 730 728 726 724 722 721 720 719 718 717 716 716 715
742 743 744 745 745 745 745 745 746 746 747 747 748 750 750 751 752 752 751 751 751 751 752 755 758 760 762 762 762 761 761 761 761 761 761 761 762 762 763 763 762 762 762 761 760 760 760 759 759 758 757 757 756 755 754 753 752 751 749 748 747 746 745 744 743 741 740 739 738 736 735 734 733 731 730 728 726 724 723 722 721 720 719 718 717
742 743 745 745 746 746 746 746 747 747 748 748 749 750 751 751 752 752 752 752 753 752 753 754 756 759 761 762 761 762 762 762 762 762 762 762 763 763 763 763 763 762 762 761 761 761 760 760 760 759 758 758 757 756 756 755 753 752 751 749 748 747 746 745 744 743 742 741 739 738 737 736 735 734 733 731 730 728 727 726 724 723 722 721 720
743 744 745 746 746 747 746 747 747 748 749 750 750 751 751 751 751 752 752 752 752 752 753 753 755 757 759 760 760 761 762 762 762 762 762 762 763 763 763 762 762 762 762 761 761 761 761 761 760 760 759 759 758 757 757 756 755 754 752 751 750 748 747 746 745 744 743 742 741 740 739 738 737 736 735 734 733 731 730 729 728 727 725 724 723
744 744 745 745 745 746 746 746 748 749 750 750 750 750 750 750 750 751 752 751 751 752 753 753 754 755 756 758 760 761 762 762 762 761 762 762 762 761 761 761 761 761 762 762 762 762 761 761 761 760 760 759 759 758 758 757 756 755 754 752 751 750 748 747 745 745 745 743 742 742 741 739 738 737 736 735 734 734 733 732 731 730 729 727 726
744 744 745 745 745 746 747 747 748 749 750 750 750 750 750 750 750 751 751 751 752 752 752 752 754 754 755 756 758 759 760 760 760 760 761 761 761 761 761 760 760 761 762 762 762 762 761 761 761 761 761 760 760 759 759 758 757 756 755 753 752 751 749 748 746 746 745 744 743 743 742 740 739 739 738 736 736 735 734 733 732 731 730 729 728
744 745 745 746 746 747 747 748 749 750 750 749 749 749 749 750 750 750 750 751 751 751 751 751 752 753 754 755 756 756 757 757 757 758 759 759 760 761 761 760 761 761 762 762 762 762 762 762 761 761 761 761 760 760 759 759 758 757 756 755 753 752 751 749 748 747 746 745 744 745 744 742 741 740 739 738 737 736 735 734 733 732 731 731 729
742 743 744 744 744 745 745 746 746 747 746 746 747 747 748 749 750 749 749 749 750 750 750 751 752 753 754 755 755 756 757 757 757 757 758 758 759 760 761 761 762 762 761 762 762 762 762 762 762 761 761 761 761 760 760 760 759 758 757 756 754 753 752 751 749 749 748 746 745 746 746 745 743 742 741 740 739 738 736 735 734 733 732 731 730
739 740 740 740 741 741 742 743 743 743 743 744 745 745 746 748 749 748 748 749 749 749 750 751 751 752 753 754 755 756 756 757 757 758 758 759 759 760 760 761 761 761 762 762 762 762 762 762 762 762 761 761 761 761 760 760 759 759 758 757 756 754 753 752 751 750 749 748 746 747 747 746 745 744 743 741 740 739 738 737 735 734 733 732 731
739 739 739 740 740 741 741 742 742 742 742 743 744 745 746 747 748 748 748 748 749 749 750 750 751 752 753 754 755 756 756 757 757 757 758 759 759 760 760 761 761 761 762 762 762 762 762 762 762 762 761 761 761 761 761 760 759 759 758 757 756 755 754 753 752 751 750 749 748 748 748 747 746 745 744 743 742 740 739 738 737 735 734 733 732
Wind_Speed
11 10 9 8 8 7 7 7 7 7 7 7 8 8 9 10 10 10 10 10 11 11 11 11 12 12 12 11 12 11 10 11 10 10 9 9 9 10 12 12 12 13 14 15 16 17 17 18 20 21 23 24 23 23 23 22 23 26 29 31 31 31 32 28 19 15 20 23 23 22 23 23 23 23 21 19 18 19 22 23 23 23 23 24 26
12 10 9 8 8 8 7 8 7 7 7 7 8 9 10 11 11 10 11 11 11 11 12 12 12 12 12 12 12 11 11 11 10 10 10 10 10 10 11 12 13 14 15 16 17 17 17 19 20 22 24 25 26 26 26 26 23 22 26 30 30 31 31 30 24 18 18 22 23 24 25 25 25 25 25 24 22 22 24 26 25 23 23 23 23
13 12 10 9 8 8 8 8 8 8 8 8 9 10 10 11 11 10 11 11 11 11 12 12 13 13 13 13 12 11 11 11 10 10 11 11 11 11 11 12 13 15 16 16 16 16 18 19 20 21 23 25 27 27 28 29 27 22 24 28 30 33 35 33 29 24 20 20 22 24 25 25 26 27 27 26 25 26 27 29 31 29 26 26 26
10 11 10 9 8 8 8 8 8 8 9 9 9 10 11 12 11 10 11 12 12 12 12 12 12 13 14 14 13 12 11 12 11 12 12 12 12 12 12 12 13 14 15 15 15 16 18 18 19 21 23 24 26 27 27 28 30 28 26 26 25 30 35 34 32 29 24 21 21 24 25 26 26 28 28 27 25 26 27 27 29 31 29 28 29
8 10 10 9 8 8 8 8 8 9 9 9 10 11 11 11 11 11 12 13 13 13 13 12 11 13 15 14 13 13 13 13 13 13 13 12 13 14 13 13 14 14 14 14 15 16 16 16 18 19 21 22 24 25 26 27 29 31 30 26 24 28 33 36 35 33 29 25 23 24 27 27 25 27 28 26 25 26 27 26 27 29 29 29 29
8 8 8 8 8 7 8 8 8 8 9 9 9 10 11 11 12 13 13 13 14 14 14 13 12 13 15 13 13 15 15 14 13 13 13 13 14 14 14 14 15 15 14 14 15 16 15 15 17 18 18 21 23 25 27 27 27 30 30 30 31 31 31 33 35 33 31 28 25 25 27 25 23 25 26 26 25 23 23 25 26 27 28 29 28
7 7 7 7 6 7 7 7 8 8 8 9 9 10 11 12 12 13 13 13 15 15 15 14 13 14 15 13 13 14 15 14 13 12 13 13 14 14 14 14 15 16 15 15 15 15 15 15 16 17 17 19 23 26 27 28 29 30 30 30 31 30 28 28 33 34 30 25 23 24 25 25 25 27 27 27 25 22 19 18 19 21 26 29 30
9 8 8 7 6 7 7 7 8 8 8 9 9 10 11 12 12 13 13 13 15 15 16 16 15 14 15 14 14 14 14 13 11 11 11 12 13 14 15 15 16 17 16 15 15 15 15 15 16 17 18 21 25 26 27 28 30 31 30 28 27 26 27 28 29 32 27 22 21 21 22 23 25 27 26 24 22 21 22 21 19 20 23 28 31
10 9 8 8 7 7 7 7 8 8 9 9 9 10 11 12 13 13 13 14 15 16 16 16 15 15 15 15 14 13 13 11 10 11 12 13 14 15 16 16 16 17 17 16 16 15 15 15 16 18 22 26 26 25 25 26 26 29 31 30 28 26 25 25 26 26 23 19 20 20 18 19 22 23 22 22 22 22 25 25 22 21 20 21 27
11 10 9 9 8 8 8 8 8 9 9 9 9 10 11 12 13 13 13 14 15 15 15 15 15 15 15 15 14 12 12 11 11 13 14 15 16 16 16 16 16 16 17 17 16 15 15 15 17 20 24 26 24 23 26 26 24 27 31 31 30 28 25 23 23 24 22 18 18 19 16 17 23 25 22 24 26 25 24 23 21 21 19 17 20
11 11 11 10 9 9 9 9 10 10 10 10 10 10 11 12 12 12 13 14 14 14 14 14 15 15 14 14 13 12 12 13 12 12 14 16 17 16 15 16 16 16 17 17 16 16 16 17 17 19 22 22 22 24 27 27 27 29 31 32 30 27 24 21 20 22 22 19 19 19 18 19 23 26 24 24 26 24 23 23 22 21 19 15 13
12 12 12 11 10 10 10 10 11 10 10 10 10 10 11 11 12 12 13 13 13 13 13 14 14 15 14 13 13 13 14 14 14 13 15 16 17 16 16 16 16 16 17 17 16 16 17 18 18 18 20 22 24 26 27 28 29 32 33 32 30 26 24 23 21 23 23 21 20 20 23 24 25 26 26 25 25 24 24 24 23 21 20 19 15
13 13 12 12 12 12 12 11 11 11 11 11 10 10 11 11 12 12 12 13 13 13 13 14 14 14 14 13 14 14 14 14 14 14 15 16 16 17 16 16 16 17 18 18 17 16 16 18 19 19 20 23 23 23 26 29 32 35 35 31 28 26 25 25 24 24 25 25 23 22 24 26 26 27 28 27 26 23 21 22 23 22 20 20 20
13 13 13 13 13 13 13 13 12 12 12 11 11 11 11 11 11 11 12 13 12 12 13 13 13 13 13 13 14 14 14 14 13 13 15 16 17 17 17 16 16 18 19 21 20 18 16 17 19 21 23 25 24 23 26 31 33 36 35 30 27 26 25 24 24 24 25 28 29 29 30 30 29 30 30 28 27 23 20 20 23 23 21 21 22
14 14 14 14 14 14 13 13 13 12 12 12 12 12 12 11 11 11 12 12 12 13 13 13 13 13 12 13 13 14 14 13 12 13 15 16 16 17 17 17 17 18 20 22 21 18 16 17 19 22 24 26 27 28 29 31 33 34 31 29 29 28 25 24 24 25 25 27 31 34 36 36 36 35 30 26 27 26 24 23 22 21 21 20 21
15 15 15 15 15 15 14 13 13 12 12 12 12 12 12 11 11 11 11 12 12 12 13 13 13 12 12 13 13 15 14 13 13 13 14 15 16 16 16 15 16 18 20 20 19 17 17 17 19 22 24 26 27 29 29 30 32 31 27 28 31 30 27 26 26 26 28 28 29 32 35 36 37 37 32 26 25 23 21 21 20 17 17 18 18
16 16 16 16 16 16 15 13 13 13 12 13 13 12 12 11 11 11 11 12 12 12 13 13 12 12 13 13 13 15 15 14 14 13 13 14 15 14 13 14 17 21 21 19 17 16 16 18 20 22 24 26 27 28 29 30 32 31 27 28 30 30 30 29 28 28 30 31 30 29 33 35 35 35 34 30 28 26 20 18 18 16 14 13 13
17 17 17 17 17 16 15 13 13 13 13 13 13 13 12 12 11 11 11 11 12 12 12 12 12 12 13 13 14 15 16 17 16 12 10 13 15 13 12 14 18 21 21 20 18 17 17 20 22 22 24 25 26 28 28 28 30 31 29 29 29 29 30 31 32 32 33 32 28 26 29 34 36 35 36 34 32 31 27 23 21 18 15 14 13
18 18 17 17 16 15 14 14 13 13 13 14 14 13 13 12 12 12 12 11 12 12 11 11 12 12 12 14 16 15 15 16 13 10 9 12 15 13 11 12 15 18 19 20 19 18 18 19 20 22 22 24 25 27 27 26 27 28 29 29 28 29 32 35 36 37 37 34 27 23 24 31 38 39 39 37 34 31 30 29 27 21 16 16 17
18 17 17 16 16 15 14 14 14 14 14 14 14 14 13 13 13 12 12 12 12 11 10 11 13 13 12 13 14 15 16 13 9 8 12 15 16 15 12 11 13 16 17 18 19 19 18 18 19 20 21 22 24 25 25 23 22 24 27 29 29 31 36 39 38 38 37 33 26 22 22 24 32 37 37 37 36 34 33 32 31 28 21 19 21
17 16 17 17 17 16 15 15 15 15 14 14 14 14 14 14 13 13 13 12 11 10 10 11 13 14 13 12 14 16 16 11 7 8 13 15 15 15 13 10 12 15 17 18 19 18 18 18 18 19 21 24 25 23 21 19 19 21 25 28 29 31 35 36 35 35 33 30 24 18 22 22 25 31 32 33 34 34 34 33 33 32 29 24 22
17 17 19 18 18 17 17 16 16 15 14 14 14 14 14 14 13 13 13 12 10 10 11 12 13 14 13 13 15 16 12 6 5 8 11 12 14 16 15 13 14 16 18 18 18 18 18 19 18 20 23 24 22 20 18 16 17 20 24 27 28 30 33 32 31 32 29 28 29 20 13 20 25 29 31 31 32 32 33 34 34 33 32 30 25
18 19 20 19 19 18 17 16 16 15 14 14 15 15 15 14 14 14 14 13 12 11 11 12 12 13 13 13 14 14 10 5 5 7 8 11 15 17 16 15 15 16 16 17 19 19 18 17 19 22 23 20 18 17 15 14 16 20 23 26 27 29 31 29 29 30 28 28 30 28 21 15 18 28 32 30 30 32 33 33 34 33 32 34 32
19 20 20 19 19 17 16 16 16 15 14 14 14 14 14 15 15 13 13 13 12 12 12 11 11 11 13 13 13 13 9 4 3 5 7 11 16 17 14 14 14 15 16 19 21 20 18 19 22 22 19 15 15 14 13 14 18 20 23 25 25 27 29 29 29 28 27 28 28 25 25 26 19 19 31 33 31 32 34 32 33 34 31 31 33
18 18 17 17 16 16 16 16 15 15 15 14 15 14 14 15 14 12 13 15 14 12 11 10 10 11 12 12 12 12 8 3 2 6 9 13 16 16 14 14 14 14 17 20 20 18 19 22 23 20 15 13 13 12 12 15 17 17 21 23 24 25 26 27 28 28 26 27 28 26 26 29 31 23 22 33 32 29 31 30 28 30 30 27 28
16 16 15 15 16 16 16 15 14 15 15 15 16 15 14 14 12 10 14 18 14 11 10 10 10 10 12 13 12 11 11 7 5 7 9 13 15 15 15 14 14 15 17 19 17 17 21 22 21 18 16 15 14 11 11 14 16 17 20 23 23 24 26 26 27 27 26 26 29 30 29 31 35 32 15 25 32 27 28 30 27 26 28 26 23
15 16 15 15 15 14 14 15 15 14 14 16 18 16 12 11 9 7 14 19 15 10 11 11 10 9 11 12 11 10 11 9 7 9 13 15 15 16 15 13 14 14 15 15 16 18 21 21 18 16 14 13 12 9 8 14 19 21 22 23 23 25 27 27 27 27 27 28 29 30 31 33 38 37 22 6 24 27 25 27 28 28 29 27 21
13 14 13 12 12 13 14 15 14 13 13 15 15 11 8 8 7 9 15 18 13 10 10 9 9 9 10 10 9 10 10 8 9 12 16 16 16 17 15 13 15 16 15 16 19 20 21 19 16 13 11 10 9 7 8 13 19 22 22 23 24 25 26 27 28 29 28 28 30 30 32 37 39 38 34 23 1 19 26 26 26 25 24 23 19
11 11 11 12 13 15 15 14 12 12 14 13 10 9 9 8 7 9 13 14 11 9 8 7 7 8 8 8 7 6 6 7 9 13 15 15 15 15 14 14 17 19 18 17 18 18 18 16 12 11 12 12 11 11 12 14 18 20 21 23 25 26 27 27 28 30 31 30 30 32 33 37 38 35 36 37 28 8 9 19 20 19 20 20 17
10 12 14 15 16 16 14 13 13 16 17 13 10 10 10 9 9 10 12 12 11 11 10 8 8 7 6 4 3 4 5 7 11 13 13 14 14 13 12 14 16 18 18 16 15 16 14 11 10 11 12 12 13 14 14 14 15 17 19 21 23 25 27 27 27 29 30 30 31 32 32 32 34 34 33 33 34 34 28 18 11 9 8 12 13
11 13 14 13 12 12 11 12 14 16 14 10 12 11 9 9 9 8 8 9 9 8 7 7 7 6 3 1 1 4 6 8 11 13 13 15 14 11 10 11 14 16 15 14 14 13 10 9 10 11 11 12 13 14 15 15 15 16 16 17 20 23 25 27 28 28 28 28 29 31 31 30 29 31 31 32 33 35 39 38 34 30 23 15 11
11 13 14 12 11 11 12 13 13 14 12 7 11 11 8 6 6 6 6 7 6 6 5 4 2 2 3 4 2 3 6 8 10 12 13 14 13 9 6 8 13 14 12 11 11 9 8 9 9 10 11 12 12 13 14 15 15 16 16 17 18 21 23 25 27 27 27 28 28 29 30 30 28 28 30 33 33 31 32 35 34 32 31 28 25
11 12 12 12 11 9 10 11 11 12 14 10 7 10 11 9 7 8 7 6 5 5 4 3 2 1 1 1 1 1 5 9 10 11 12 12 10 5 2 5 11 13 11 9 8 8 9 10 10 11 12 12 12 13 14 14 14 15 16 17 17 18 19 22 26 27 26 27 28 29 30 29 29 29 29 30 31 29 27 28 28 27 27 26 23
10 11 11 11 11 10 10 11 11 12 13 11 6 8 12 12 9 8 8 6 5 5 4 3 3 4 4 4 4 5 7 10 11 11 10 9 6 4 4 3 5 9 11 11 10 10 11 11 11 12 12 12 13 13 13 14 14 14 15 16 17 17 18 20 24 25 25 26 28 29 30 30 29 28 27 28 28 26 24 24 24 23 22 21 18
9 10 10 9 9 11 12 12 12 12 10 8 6 5 5 5 5 7 7 6 7 6 5 5 4 4 4 4 4 6 9 10 11 11 10 7 5 5 5 5 3 6 8 8 9 10 11 11 12 12 12 12 12 13 13 14 14 14 15 16 16 17 18 19 21 22 21 24 26 27 28 29 29 28 27 25 25 24 22 22 21 19 19 18 17
8 9 10 8 8 10 11 10 10 10 8 7 6 3 1 2 5 7 7 7 7 7 8 8 5 4 4 4 6 7 8 10 10 11 11 9 8 8 7 5 5 7 7 8 9 10 11 12 12 12 13 13 13 13 14 14 14 15 15 16 16 17 17 18 20 20 19 20 23 25 26 27 27 28 27 25 23 22 21 19 19 18 17 18 18
7 8 7 6 6 8 9 9 8 7 6 6 6 3 2 2 3 4 4 5 6 7 9 9 7 8 7 4 6 6 6 7 7 8 11 11 9 8 8 8 8 8 7 8 9 9 10 11 12 11 12 13 14 14 14 14 15 15 15 15 16 17 17 17 18 19 18 18 19 21 22 24 25 26 25 23 22 23 22 20 19 18 18 18 17
6 6 7 8 8 7 7 9 9 7 5 5 3 0 3 4 4 4 4 3 2 4 7 6 3 3 3 5 7 6 5 5 3 3 7 10 8 7 7 8 8 7 7 8 8 8 9 10 10 11 11 11 12 13 13 14 15 15 15 15 15 17 18 18 17 18 17 17 18 19 19 20 21 23 23 22 21 23 23 21 21 20 19 18 16
5 5 6 8 8 6 7 9 10 8 5 3 2 5 6 7 8 8 8 7 7 8 9 8 7 8 7 7 7 8 8 5 3 3 5 6 6 6 6 6 7 8 8 8 8 8 9 9 10 10 11 11 11 12 12 12 13 14 15 15 14 16 17 18 18 18 17 17 17 18 18 19 18 19 20 20 20 21 22 22 22 21 19 18 15
4 3 4 4 4 4 5 8 8 4 0 3 6 8 8 7 7 7 7 7 9 10 9 6 5 7 6 4 5 8 9 4 1 3 3 3 4 5 5 5 6 7 7 8 9 9 9 9 10 10 10 11 11 11 11 12 12 12 13 14 14 14 15 16 16 17 17 17 17 17 17 18 18 17 18 18 18 19 20 21 21 21 20 18 16
2 1 1 1 1 2 3 3 4 6 6 7 8 9 9 9 8 8 8 7 8 9 9 5 4 5 5 2 2 6 6 2 0 1 1 1 2 3 4 4 5 5 6 6 7 8 8 8 9 10 10 11 11 11 12 12 12 12 12 13 13 14 14 15 16 17 16 16 17 17 17 18 17 17 17 17 16 17 19 19 19 20 19 17 17
2 0 1 1 1 1 1 2 4 6 7 7 8 9 9 8 8 8 8 7 7 8 9 8 4 3 2 1 2 3 3 1 1 1 1 1 1 3 4 5 5 6 6 6 6 6 7 7 8 9 10 11 11 12 12 12 13 13 12 12 13 14 14 14 16 17 16 16 16 17 17 17 17 16 17 17 16 15 17 17 17 17 18 17 17
4 4 3 4 4 3 3 4 6 8 8 8 7 7 7 6 5 4 3 2 1 2 3 4 4 2 1 1 2 2 1 1 2 1 1 1 2 3 4 5 5 6 6 6 6 6 6 6 7 7 8 9 10 11 11 12 12 13 13 13 13 14 14 14 15 16 16 16 17 17 16 16 16 15 16 17 16 15 15 16 16 15 16 15 15
5 6 6 5 4 4 5 6 6 7 7 6 5 5 4 3 2 1 1 2 2 2 3 3 4 4 3 3 2 1 1 1 2 2 2 2 2 2 2 3 4 4 4 5 6 6 6 6 6 6 6 7 8 9 10 11 12 12 13 13 13 14 14 14 14 15 16 16 16 16 16 16 15 15 15 15 15 14 14 14 14 14 15 14 14
6 6 6 5 5 5 5 5 4 4 4 4 4 3 4 4 4 4 4 4 4 4 3 4 5 5 4 4 3 2 2 3 3 2 2 2 1 2 2 2 3 3 3 4 5 5 5 5 5 5 6 7 7 7 8 9 11 12 13 14 14 15 15 14 14 14 15 14 14 15 16 15 14 15 15 14 13 13 13 13 13 12 13 14 13
6 5 5 5 5 4 4 4 4 3 3 3 3 4 5 5 5 5 5 4 4 5 5 5 5 5 4 4 3 3 3 3 3 3 2 2 2 2 1 1 2 3 4 4 4 4 5 5 5 6 6 6 7 7 8 9 10 11 13 14 14 15 14 14 13 14 14 14 13 14 15 14 13 14 15 14 13 12 12 12 12 12 12 12 12
4 4 3 3 3 3 3 1 2 2 3 3 4 5 5 5 5 5 5 4 5 5 6 6 6 6 6 5 5 5 5 4 3 3 3 3 2 1 0 1 1 2 2 3 3 4 5 5 5 6 6 6 7 7 8 9 10 11 12 14 15 15 15 14 13 12 12 13 13 14 14 14 13 13 14 14 14 13 12 12 12 12 12 12 12
4 4 3 3 3 4 4 4 4 4 5 5 5 5 6 6 5 5 5 5 6 7 7 6 6 5 5 5 5 5 4 3 3 3 3 3 3 2 1 1 1 1 1 2 3 4 5 5 6 6 6 6 6 7 8 9 10 11 12 13 14 15 14 14 12 11 10 12 13 13 13 13 13 13 13 13 13 13 13 13 13 12 12 12 12
6 6 6 6 6 6 7 7 6 7 7 7 6 6 7 6 6 6 6 6 7 6 6 6 6 5 5 5 4 3 3 2 2 2 3 3 3 3 2 2 1 1 2 3 3 4 4 5 5 6 6 6 6 7 8 9 9 10 11 12 12 13 13 13 12 11 10 12 12 12 12 12 13 13 13 13 13 13 13 13 13 13 12 12 13
5 6 7 7 8 8 8 8 9 8 8 8 8 8 7 7 7 6 6 6 6 6 6 6 6 6 6 5 4 4 3 3 3 2 3 3 3 3 3 2 2 2 2 3 3 3 4 4 5 5 6 6 6 6 8 8 9 10 11 12 12 12 13 12 11 10 11 13 13 12 11 11 11 12 13 13 13 12 12 13 13 12 12 12 13
5 5 6 6 7 6 6 7 8 7 7 8 8 8 7 7 7 7 6 6 6 6 6 5 5 5 5 5 5 4 3 3 3 3 3 3 3 3 3 3 3 2 2 2 2 2 3 3 4 4 5 5 6 6 7 8 8 9 10 12 14 13 12 12 11 10 11 14 14 12 11 11 11 11 12 13 13 13 12 12 13 12 11 12 12
Wind_Direction
207 211 215 221 227 231 239 241 241 250 256 262 269 274 279 282 284 289 294 298 299 299 301 302 302 301 303 302 302 302 299 301 307 306 300 297 297 302 306 306 305 305 306 307 313 318 316 312 309 308 310 309 305 299 291 284 279 274 267 262 259 256 251 249 252 254 249 247 248 249 249 248 248 245 241 238 236 235 231 228 229 231 232 232 234
205 211 215 218 227 233 238 241 241 248 255 263 268 270 273 277 279 282 284 290 296 299 301 301 299 298 299 298 299 300 296 296 300 301 299 295 294 299 304 304 305 305 304 308 313 317 317 315 314 314 316 315 311 307 302 296 288 275 267 265 262 257 252 249 252 256 252 247 246 247 247 247 247 245 240 236 234 232 230 229 230 231 230 230 231
199 201 211 217 225 233 236 238 241 246 255 261 265 269 276 279 278 277 282 289 294 295 296 296 295 294 293 294 294 293 291 289 289 292 294 290 287 294 299 300 302 302 302 306 310 315 317 317 319 321 323 322 318 313 308 302 296 281 266 264 263 260 254 250 249 252 252 246 242 244 246 244 244 244 241 236 233 231 231 232 234 233 231 229 229
195 193 206 217 223 229 233 236 241 248 257 263 265 270 279 285 290 293 294 292 290 290 290 290 293 293 290 288 289 287 285 285 286 288 287 283 282 288 295 300 300 299 301 304 308 313 314 316 321 326 328 326 321 317 315 311 305 294 276 265 262 261 258 253 247 245 248 248 243 244 247 246 243 242 240 236 231 228 228 228 228 228 229 228 227
202 197 205 216 219 224 231 237 243 250 259 267 272 277 286 295 300 295 288 287 291 294 293 291 295 296 291 288 288 288 285 284 286 286 284 283 283 286 293 299 298 297 299 301 306 311 313 316 322 327 329 329 325 321 317 316 313 307 295 283 276 273 265 256 248 244 242 242 244 246 247 247 246 243 239 233 229 227 227 227 227 226 227 228 226
204 201 210 219 218 222 233 240 247 255 261 267 273 280 288 291 290 291 293 297 299 298 295 296 297 297 293 289 286 286 285 284 283 283 285 285 284 284 289 294 294 295 299 300 303 309 311 315 320 324 327 328 327 322 317 316 315 311 305 294 288 285 272 254 246 245 242 238 241 246 246 247 247 244 240 233 227 224 221 225 228 223 221 223 223
198 203 217 226 222 228 237 241 249 257 262 267 272 277 284 289 293 298 301 299 296 294 296 297 296 296 295 291 286 284 284 283 281 281 283 279 278 282 287 292 293 295 298 297 299 307 311 313 318 323 322 321 321 318 317 319 317 313 310 300 288 284 280 265 250 244 243 240 240 243 244 245 244 242 241 238 231 223 217 220 227 222 217 220 221
194 202 213 221 225 231 239 243 247 255 259 263 270 276 283 289 291 292 291 291 293 295 296 297 297 298 297 294 292 287 282 280 280 283 281 275 277 284 287 290 292 295 297 296 296 304 310 312 316 320 315 312 315 316 318 323 320 315 316 314 303 290 285 281 263 245 240 242 244 242 240 241 243 240 239 237 230 223 220 219 221 221 218 220 224
193 201 205 212 219 224 232 240 242 249 255 257 265 274 279 284 286 287 288 291 295 296 296 297 297 295 293 293 292 286 279 277 279 282 282 281 285 288 288 290 292 294 295 295 295 300 308 312 313 315 312 311 314 316 319 325 321 313 314 317 316 309 297 290 278 258 244 241 243 242 237 237 240 239 234 230 225 221 220 221 222 221 215 216 221
192 200 205 209 215 219 224 231 237 244 250 255 263 271 278 285 286 286 290 293 296 298 297 295 293 291 291 292 290 285 280 280 282 284 287 289 289 287 288 290 291 292 292 292 294 297 306 311 310 312 313 313 315 316 319 326 324 316 315 314 313 311 303 294 285 271 256 244 240 238 235 238 239 236 233 230 228 223 218 220 223 220 213 214 219
193 201 206 206 210 215 219 225 233 240 246 252 259 268 278 283 283 285 291 294 295 296 295 294 293 292 292 291 290 287 285 287 292 298 300 297 289 283 283 288 290 290 290 291 292 295 304 309 307 310 312 312 315 317 321 326 325 321 321 321 318 313 302 292 284 274 265 258 251 241 232 234 237 235 232 231 231 227 219 219 222 219 213 215 218
196 201 205 205 207 211 217 223 230 237 243 249 255 266 276 279 281 285 289 293 295 295 295 294 293 292 292 291 291 289 286 287 292 298 301 299 292 283 279 282 287 289 291 291 291 295 304 308 306 305 307 310 315 319 322 324 323 325 328 327 324 320 311 301 290 277 268 261 257 249 235 231 233 234 233 231 231 230 224 222 223 220 216 216 217
199 203 204 205 206 209 216 223 229 236 240 245 253 262 270 274 277 282 288 293 294 293 294 293 293 293 293 293 292 289 287 287 287 290 297 301 297 287 276 275 284 292 295 295 293 295 301 306 305 302 303 309 314 318 321 322 322 327 330 327 322 318 315 311 302 289 273 258 253 252 244 238 236 235 233 231 231 229 225 224 225 221 217 218 220
199 204 204 206 208 210 215 222 229 235 237 243 251 256 263 269 273 280 288 290 290 292 295 295 295 295 294 293 291 289 289 289 287 290 299 304 301 289 277 273 281 289 293 292 289 290 295 299 302 303 306 311 314 315 319 322 323 326 328 325 320 317 316 315 313 305 287 264 252 250 248 245 246 244 237 232 232 229 224 225 225 220 217 218 221
203 205 205 208 211 212 216 221 228 235 239 243 249 253 256 262 267 275 283 287 290 294 294 293 293 293 295 296 296 296 295 294 295 297 301 305 304 292 279 275 278 285 290 288 284 285 292 296 299 305 308 311 316 320 322 321 323 326 324 322 322 320 315 314 315 311 299 277 259 251 247 246 248 248 242 235 235 234 231 232 230 225 225 226 222
208 208 208 210 213 214 217 222 227 235 241 244 248 250 252 258 264 269 275 282 286 290 292 292 291 293 295 297 300 299 296 296 300 304 304 305 304 293 282 278 283 289 292 292 289 288 291 294 298 305 309 311 318 325 326 323 325 327 324 322 324 321 315 313 313 308 302 292 275 259 249 246 244 244 242 237 234 232 235 242 239 228 232 236 225
209 211 212 213 215 216 217 220 228 235 240 243 246 248 249 254 258 261 269 278 283 289 293 291 290 292 294 297 302 302 300 301 301 300 303 306 304 295 284 285 294 297 298 301 300 294 291 294 300 304 305 310 318 325 327 326 327 328 326 323 324 322 318 317 316 309 305 301 290 269 254 247 242 241 241 242 241 238 237 246 242 224 219 230 227
212 213 214 215 217 219 218 220 228 235 239 242 245 247 248 251 255 259 267 275 281 286 289 288 289 293 297 305 311 310 310 312 306 297 298 305 305 300 289 289 295 300 305 309 308 302 298 301 305 305 305 309 317 323 326 327 329 329 329 325 323 323 323 321 319 316 313 309 297 275 257 247 242 240 239 238 243 243 235 234 237 232 223 225 226
216 214 214 217 219 221 221 222 229 237 240 242 245 247 247 248 253 257 260 267 274 278 283 289 293 298 305 311 310 306 307 310 305 299 306 308 305 302 294 289 294 301 308 312 310 307 306 304 307 309 310 313 318 322 324 327 330 331 331 327 322 324 328 326 323 320 318 313 299 277 261 248 240 239 238 236 237 239 232 228 231 233 234 233 231
220 217 216 218 220 222 225 226 229 236 242 243 244 245 245 247 251 254 258 267 275 281 286 291 293 297 301 301 300 300 300 294 283 296 315 313 307 302 296 291 297 304 309 310 309 309 309 308 309 312 315 317 319 321 324 330 335 335 333 328 324 327 330 330 329 327 323 318 302 272 258 249 236 232 234 235 233 232 230 229 229 228 229 234 235
219 217 217 219 220 220 223 226 229 234 238 242 243 242 241 245 250 254 258 265 271 278 283 285 288 293 296 296 297 297 292 282 274 299 316 317 312 306 301 294 297 302 305 305 306 308 310 311 312 312 315 317 319 322 326 332 340 341 337 332 329 332 335 334 335 336 331 330 324 284 250 243 235 229 228 229 228 227 226 226 227 226 224 225 230
219 217 218 219 219 221 222 223 227 231 232 235 239 241 241 244 249 255 259 261 265 269 272 276 281 289 294 295 293 290 287 289 297 302 310 317 317 312 304 298 297 301 302 301 301 303 306 309 310 311 314 317 321 325 329 334 341 344 343 340 339 342 344 339 339 341 338 342 353 345 281 245 234 228 227 225 222 221 221 222 223 224 223 222 225
219 217 218 217 218 222 222 221 223 226 228 231 235 237 239 240 245 252 254 253 255 258 260 266 275 285 291 292 293 298 306 318 310 302 308 319 320 314 304 297 297 301 299 295 296 301 302 304 308 313 317 322 326 329 332 338 344 348 349 349 350 353 352 346 345 347 344 346 359 4 351 311 253 228 222 222 221 218 217 219 219 220 221 221 223
222 219 217 218 220 223 224 222 222 224 226 229 233 236 238 239 241 248 250 246 246 249 252 257 268 282 290 292 297 306 305 282 297 327 332 329 327 322 312 301 298 299 299 296 297 299 300 305 314 318 321 328 332 334 341 347 348 350 352 353 357 359 358 354 352 352 352 354 358 359 356 350 326 257 228 220 219 217 214 214 217 217 217 218 220
225 222 221 222 225 227 226 222 222 226 228 231 235 236 238 239 235 239 250 249 245 245 250 258 269 280 288 291 298 308 304 289 41 15 348 336 333 329 321 314 310 308 305 302 302 304 306 313 320 321 319 324 326 335 356 0 352 349 351 354 358 0 1 1 359 357 358 359 357 353 350 352 348 322 253 221 214 214 212 212 214 215 215 216 218
230 228 227 227 229 230 229 225 227 230 232 239 243 241 241 241 231 227 246 251 245 241 248 258 266 275 287 294 300 308 311 326 38 31 350 339 335 331 328 326 324 320 312 308 311 316 316 319 323 321 317 313 311 322 353 0 357 358 359 359 1 1 2 4 3 1 360 359 358 355 350 352 356 350 303 221 210 211 212 211 210 211 213 214 213
234 233 232 232 229 228 228 230 233 231 229 240 248 245 242 240 225 224 250 254 249 243 250 261 270 279 291 298 303 308 311 328 17 10 345 340 338 337 338 334 327 323 318 315 318 319 321 325 325 322 319 311 307 320 349 352 358 6 5 2 3 4 5 5 4 3 1 2 3 357 354 2 7 4 358 229 205 208 208 206 207 211 212 209 203
238 239 238 233 230 231 232 234 236 235 238 249 251 244 242 243 231 237 248 248 241 239 251 266 277 282 290 299 308 312 313 330 357 349 339 339 339 339 341 335 328 327 323 320 320 320 323 326 324 327 336 333 330 347 0 355 0 6 5 2 3 5 5 5 5 5 3 5 7 3 2 11 12 6 12 26 40 217 215 211 207 203 197 191 186
238 242 240 233 231 233 231 229 233 237 243 248 237 220 227 229 208 210 221 218 211 221 244 262 269 278 296 310 314 313 317 330 337 335 336 337 334 332 335 335 333 330 326 324 324 321 319 321 329 345 355 354 354 359 1 0 3 4 3 4 5 5 5 4 4 6 5 6 10 9 9 13 12 8 16 26 27 17 213 208 200 186 179 179 182
247 250 248 242 240 236 225 221 232 241 240 229 203 201 214 207 189 192 200 203 209 221 233 246 256 271 300 325 314 298 307 319 322 327 333 333 329 325 328 334 335 329 327 328 322 312 312 327 353 4 2 3 6 3 359 1 4 1 1 4 5 5 7 7 7 9 8 7 12 14 13 14 14 12 17 24 27 35 47 59 77 98 143 182 191
260 262 260 262 270 268 250 235 237 247 245 212 184 191 199 187 186 196 196 199 211 221 228 240 250 257 253 156 356 315 311 314 322 330 331 327 326 324 325 338 341 332 325 321 312 309 324 356 12 11 10 13 14 8 3 4 6 3 360 1 3 3 4 6 9 12 13 12 14 16 15 15 15 16 22 27 30 36 43 47 49 50 50 52 55
265 269 271 275 281 276 263 254 255 264 267 229 187 193 197 167 160 177 186 190 199 204 210 218 228 239 212 170 157 320 323 327 334 338 334 330 332 329 329 354 358 346 328 312 307 323 356 15 19 19 18 18 17 14 12 10 8 7 4 2 3 3 2 4 8 13 17 17 18 17 15 15 17 19 26 32 34 35 41 46 48 49 48 46 44
273 277 280 281 276 264 258 262 269 273 274 262 207 193 204 204 184 170 170 178 183 180 182 178 134 65 0 194 189 330 351 354 353 350 342 340 345 344 335 12 18 14 3 347 343 359 13 20 26 24 19 18 18 15 13 12 10 9 8 5 5 3 1 4 10 14 17 18 19 20 19 18 19 21 26 34 36 36 40 45 48 49 49 47 42
273 279 284 287 287 282 272 267 266 265 267 267 243 210 218 224 203 166 156 166 169 160 158 156 112 62 32 11 5 18 20 12 7 1 353 347 350 335 287 290 3 22 20 13 13 17 17 20 28 25 19 19 17 11 10 9 7 7 7 6 4 1 0 4 10 13 15 16 17 20 22 21 21 22 25 33 36 34 36 42 44 46 48 48 44
274 278 279 279 280 280 277 273 273 276 279 278 270 259 260 252 205 172 176 191 184 168 166 167 133 79 50 17 9 23 25 18 14 12 7 4 8 350 308 281 320 12 14 14 20 24 21 23 28 26 22 20 18 14 11 8 5 5 5 5 4 3 3 5 8 9 11 14 16 18 20 22 23 23 25 31 34 31 31 35 39 42 45 47 45
274 275 272 270 274 279 283 285 284 288 297 296 288 297 357 195 194 184 182 191 188 171 164 166 156 129 104 60 36 34 30 23 23 26 25 25 28 17 356 348 21 30 22 18 23 26 25 26 28 28 26 24 22 20 17 12 9 7 4 5 7 6 5 6 7 8 8 10 12 16 19 21 22 22 23 27 31 30 30 31 32 35 42 46 47
276 276 280 298 312 305 300 300 296 292 291 285 285 316 61 126 187 196 192 206 212 187 164 160 167 168 153 82 31 25 20 13 20 35 33 23 18 20 19 21 33 40 35 27 27 28 28 27 27 28 28 27 25 24 20 16 13 10 7 8 10 9 9 9 10 11 11 11 10 12 16 19 21 20 19 21 24 27 29 31 29 28 35 46 51
278 284 299 315 319 312 301 295 289 282 269 258 256 281 93 105 104 100 106 121 152 143 126 106 86 115 108 30 5 345 328 327 323 2 21 15 8 19 38 42 41 44 42 34 32 32 31 29 27 26 26 26 25 22 18 16 15 13 11 10 11 12 13 13 11 11 12 13 12 11 11 15 18 17 17 18 19 20 24 28 30 28 31 39 46
275 290 305 308 301 296 295 287 277 263 247 226 130 108 111 107 98 97 101 103 103 96 83 63 46 39 27 9 351 323 302 293 295 324 358 16 17 22 40 50 50 50 46 38 33 32 32 30 27 25 23 22 20 18 16 15 16 15 13 11 12 13 13 11 11 11 12 12 13 11 10 11 13 13 15 16 16 17 18 22 26 29 29 31 36
282 300 327 328 297 280 287 288 286 286 190 114 103 105 111 108 107 118 122 107 96 90 82 70 59 45 27 4 342 327 314 296 300 337 341 14 23 21 37 50 50 47 44 36 30 28 27 27 25 22 20 20 19 17 16 15 14 15 16 15 14 13 12 10 10 12 11 10 10 10 10 9 9 11 15 17 17 18 17 17 21 26 29 28 28
332 319 318 0 291 275 298 326 353 26 59 88 101 110 117 114 114 127 132 126 129 130 124 112 76 41 25 10 2 355 348 348 121 325 323 3 21 27 42 44 40 42 43 37 30 27 26 27 25 21 20 19 17 16 16 15 14 14 16 16 15 13 12 11 10 10 9 8 7 8 9 9 10 11 12 13 15 19 20 18 17 20 23 23 23
41 334 252 70 58 345 352 55 71 74 84 99 105 110 119 128 140 154 159 166 178 167 140 118 97 48 21 43 80 53 40 77 185 226 294 351 31 50 54 49 46 46 41 34 29 24 25 30 30 25 22 19 17 17 16 14 13 13 13 15 16 14 11 10 8 7 7 6 4 4 5 7 10 12 10 8 11 17 20 20 18 17 18 18 19
85 89 96 95 92 90 91 99 102 99 95 97 105 113 123 132 140 148 137 108 123 172 147 129 133 144 141 124 111 90 83 183 184 167 109 95 88 75 61 54 52 50 42 37 33 28 27 33 35 31 27 23 20 20 18 15 14 14 14 14 15 13 12 10 8 5 4 2 1 2 3 4 8 12 11 9 10 14 18 20 18 17 17 15 16
98 98 104 112 115 109 103 101 101 99 94 92 100 115 128 128 115 105 121 128 153 202 216 193 177 180 199 211 198 160 166 180 159 143 139 131 112 89 70 58 51 47 44 44 41 34 31 35 36 34 34 31 25 24 24 22 20 19 17 15 15 13 10 7 3 1 0 358 357 358 0 2 7 11 10 9 10 12 15 17 16 15 17 16 15
120 125 131 139 144 144 137 125 115 114 120 123 125 140 164 169 172 190 202 203 205 212 211 201 195 196 203 208 200 175 170 176 172 165 159 152 146 144 121 81 56 46 42 44 42 36 33 35 37 39 42 39 33 31 32 30 29 27 23 19 17 12 6 4 2 357 355 355 356 357 358 0 5 9 8 8 10 12 11 12 11 11 13 14 12
133 144 158 164 162 157 155 153 151 158 169 163 162 185 201 198 196 205 211 211 212 210 204 201 198 192 190 193 192 188 191 193 189 186 183 182 187 180 158 90 50 40 34 33 34 33 34 39 42 43 46 45 42 41 40 37 36 32 26 23 22 16 11 13 13 2 353 353 355 355 356 0 4 7 8 7 10 12 11 11 13 12 10 10 9
138 134 131 132 112 89 83 119 180 212 229 215 200 214 224 217 205 208 211 210 210 207 200 195 191 188 186 186 186 191 199 198 192 185 183 181 184 192 215 10 31 41 36 32 33 35 40 45 46 49 53 51 49 51 47 42 41 36 26 23 25 22 17 21 21 10 4 7 3 354 355 1 3 6 9 9 9 11 11 10 11 13 11 8 7
146 143 137 146 158 164 175 186 195 212 230 230 223 229 238 237 226 215 206 201 204 202 193 184 185 187 184 180 179 184 188 183 172 163 155 149 154 164 149 32 43 69 65 58 50 46 49 50 47 50 55 52 52 59 57 49 45 39 26 21 25 24 20 23 25 20 20 23 12 357 356 3 4 4 9 10 8 10 11 9 8 10 12 11 9
192 197 196 202 216 220 217 217 221 227 233 238 240 240 242 244 239 223 204 193 195 196 186 178 178 179 175 173 175 177 174 174 174 154 135 130 136 140 134 117 109 95 75 71 65 56 55 55 50 49 53 52 53 61 62 57 50 40 26 21 27 29 24 25 29 30 34 34 22 5 359 4 5 5 8 9 9 11 12 8 5 6 10 12 10
245 243 234 234 243 247 246 246 250 252 252 253 252 247 243 241 235 221 203 191 190 189 184 180 179 177 174 174 177 179 176 178 178 161 145 142 139 132 130 133 132 109 84 79 75 61 54 55 49 46 50 51 50 58 65 60 47 35 25 23 29 32 31 31 35 39 42 40 30 13 2 3 7 9 9 7 7 9 10 8 5 5 9 12 12
295 292 276 267 268 269 261 254 254 256 258 256 252 245 238 233 225 210 197 193 190 186 183 182 179 174 169 168 171 177 173 167 164 157 147 141 138 137 137 135 130 126 120 105 88 70 59 54 45 41 46 48 49 60 63 45 23 16 21 24 26 28 30 34 39 46 47 43 33 16 4 5 9 11 12 10 7 4 4 5 5 6 10 12 12